| time (UTC) | temp F | wind direction | speed knots | gust knots | rain 1hr in | rain 24hr in | rain mn in | humidity % | barometer mb |
| 20260507195556 | 66 | 223 | 1.7 | 10.4 | 0.00 | 0.00 | 0.00 | 44 | 1016.2 |
| 20260507195053 | 66 | 52 | 2.6 | 10.4 | 0.00 | 0.00 | 0.00 | 41 | 1016.3 |
| 20260507194553 | 65 | 160 | 3.5 | 9.6 | 0.00 | 0.00 | 0.00 | 41 | 1016.1 |
| 20260507194055 | 65 | 172 | 5.2 | 10.4 | 0.00 | 0.00 | 0.00 | 43 | 1016.2 |
| 20260507193552 | 65 | 146 | 4.3 | 13.0 | 0.00 | 0.00 | 0.00 | 42 | 1016.2 |
| 20260507193110 | 65 | 355 | 1.7 | 13.0 | 0.00 | 0.00 | 0.00 | 41 | 1016.2 |
| 20260507192552 | 65 | 279 | 2.6 | 8.7 | 0.00 | 0.00 | 0.00 | 38 | 1016.2 |
| 20260507192053 | 65 | 207 | 0.9 | 8.7 | 0.00 | 0.00 | 0.00 | 47 | 1016.3 |
| 20260507191557 | 65 | 355 | 1.7 | 7.0 | 0.00 | 0.00 | 0.00 | 43 | 1016.4 |
| 20260507191050 | 64 | 272 | 2.6 | 9.6 | 0.00 | 0.00 | 0.00 | 42 | 1016.4 |
| 20260507190649 | 64 | 300 | 4.3 | 9.6 | 0.00 | 0.00 | 0.00 | 41 | 1016.5 |
| 20260507190054 | 65 | 341 | 3.5 | 12.2 | 0.00 | 0.00 | 0.00 | 42 | 1016.5 |
| 20260507185552 | 64 | 256 | 3.5 | 11.3 | 0.00 | 0.00 | 0.00 | 45 | 1016.5 |
| 20260507185052 | 64 | 207 | 2.6 | 8.7 | 0.00 | 0.00 | 0.00 | 40 | 1016.6 |
| 20260507184551 | 63 | 176 | 1.7 | 6.1 | 0.00 | 0.00 | 0.00 | 46 | 1016.7 |
| 20260507184047 | 64 | 290 | 1.7 | 8.7 | 0.00 | 0.00 | 0.00 | 43 | 1016.8 |
| 20260507183546 | 64 | 288 | 4.3 | 8.7 | 0.00 | 0.00 | 0.00 | 48 | 1016.9 |
| 20260507183057 | 64 | 288 | 2.6 | 8.7 | 0.00 | 0.00 | 0.00 | 47 | 1016.9 |
| 20260507182545 | 63 | 140 | 2.6 | 7.0 | 0.00 | 0.00 | 0.00 | 41 | 1016.8 |
| 20260507182045 | 63 | 192 | 0.0 | 7.0 | 0.00 | 0.00 | 0.00 | 49 | 1016.9 |
| 20260507181544 | 62 | 157 | 0.9 | 8.7 | 0.00 | 0.00 | 0.00 | 38 | 1016.9 |
| 20260507181043 | 63 | 173 | 4.3 | 10.4 | 0.00 | 0.00 | 0.00 | 43 | 1016.9 |
| 20260507180643 | 63 | 248 | 1.7 | 10.4 | 0.00 | 0.00 | 0.00 | 42 | 1016.9 |
| 20260507180050 | 62 | 329 | 0.9 | 4.3 | 0.00 | 0.00 | 0.00 | 38 | 1017.0 |
| 20260507175555 | 63 | 355 | 0.9 | 6.1 | 0.00 | 0.00 | 0.00 | 48 | 1017.2 |
| 20260507175048 | 62 | 255 | 2.6 | 7.0 | 0.00 | 0.00 | 0.00 | 48 | 1017.4 |
| 20260507174548 | 62 | 338 | 2.6 | 7.0 | 0.00 | 0.00 | 0.00 | 44 | 1017.4 |
| 20260507174046 | 63 | 304 | 1.7 | 7.8 | 0.00 | 0.00 | 0.00 | 43 | 1017.5 |
| 20260507173550 | 62 | 202 | 2.6 | 7.8 | 0.00 | 0.00 | 0.00 | 43 | 1017.6 |
| 20260507173112 | 62 | 209 | 0.9 | 7.0 | 0.00 | 0.00 | 0.00 | 48 | 1017.6 |
| 20260507172545 | 62 | 307 | 3.5 | 7.0 | 0.00 | 0.00 | 0.00 | 47 | 1017.7 |
| 20260507172044 | 62 | 316 | 0.9 | 8.7 | 0.00 | 0.00 | 0.00 | 46 | 1017.7 |
| 20260507171546 | 62 | 228 | 0.9 | 8.7 | 0.00 | 0.00 | 0.00 | 52 | 1017.8 |
| 20260507171041 | 61 | 178 | 1.7 | 6.1 | 0.00 | 0.00 | 0.00 | 44 | 1017.8 |
| 20260507170641 | 61 | 239 | 0.9 | 9.6 | 0.00 | 0.00 | 0.00 | 41 | 1017.9 |
| 20260507170050 | 61 | 284 | 4.3 | 10.4 | 0.00 | 0.00 | 0.00 | 45 | 1017.9 |
| 20260507165546 | 61 | 277 | 4.3 | 10.4 | 0.00 | 0.00 | 0.00 | 44 | 1018.1 |
| 20260507165045 | 61 | 292 | 1.7 | 7.8 | 0.00 | 0.00 | 0.00 | 44 | 1018.1 |
| 20260507164553 | 60 | 304 | 0.9 | 9.6 | 0.00 | 0.00 | 0.00 | 51 | 1018.3 |
| 20260507164043 | 61 | 313 | 2.6 | 9.6 | 0.00 | 0.00 | 0.00 | 46 | 1018.3 |
| 20260507163542 | 61 | 305 | 3.5 | 7.0 | 0.00 | 0.00 | 0.00 | 47 | 1018.4 |
| 20260507163041 | 61 | 250 | 0.0 | 6.1 | 0.00 | 0.00 | 0.00 | 49 | 1018.4 |
| 20260507162540 | 60 | 163 | 0.0 | 7.0 | 0.00 | 0.00 | 0.00 | 50 | 1018.4 |
| 20260507162039 | 60 | 360 | 2.6 | 7.0 | 0.00 | 0.00 | 0.00 | 54 | 1018.5 |
| 20260507161540 | 60 | 292 | 3.5 | 7.0 | 0.00 | 0.00 | 0.00 | 49 | 1018.6 |
| 20260507161038 | 60 | 181 | 3.5 | 7.0 | 0.00 | 0.00 | 0.00 | 46 | 1018.5 |
| 20260507160509 | 60 | 286 | 0.9 | 5.2 | 0.00 | 0.00 | 0.00 | 54 | 1018.5 |
| 20260507160012 | 60 | 319 | 3.5 | 8.7 | 0.00 | 0.00 | 0.00 | 48 | 1018.6 |
| 20260507155509 | 59 | 215 | 3.5 | 8.7 | 0.00 | 0.00 | 0.00 | 50 | 1018.5 |
| 20260507155006 | 59 | 171 | 1.7 | 7.0 | 0.00 | 0.00 | 0.00 | 53 | 1018.5 |
| 20260507154608 | 59 | 194 | 1.7 | 7.0 | 0.00 | 0.00 | 0.00 | 52 | 1018.5 |
| 20260507154003 | 59 | 215 | 0.0 | 3.5 | 0.00 | 0.00 | 0.00 | 55 | 1018.6 |
| 20260507153504 | 59 | 166 | 0.9 | 8.7 | 0.00 | 0.00 | 0.00 | 49 | 1018.7 |
| 20260507153101 | 59 | 279 | 3.5 | 8.7 | 0.00 | 0.00 | 0.00 | 51 | 1018.7 |
| 20260507152558 | 58 | 190 | 1.7 | 3.5 | 0.00 | 0.00 | 0.00 | 54 | 1018.7 |
| 20260507152057 | 59 | 315 | 0.0 | 7.0 | 0.00 | 0.00 | 0.00 | 53 | 1018.8 |
| 20260507151556 | 57 | 233 | 2.6 | 7.0 | 0.00 | 0.00 | 0.00 | 51 | 1018.9 |
| 20260507151056 | 57 | 146 | 1.7 | 5.2 | 0.00 | 0.00 | 0.00 | 50 | 1018.8 |
| 20260507150509 | 57 | 259 | 1.7 | 5.2 | 0.00 | 0.00 | 0.00 | 53 | 1018.9 |
| 20260507150010 | 57 | 222 | 0.9 | 7.0 | 0.00 | 0.00 | 0.00 | 53 | 1018.9 |
| 20260507145508 | 58 | 219 | 1.7 | 7.0 | 0.00 | 0.00 | 0.00 | 60 | 1018.9 |
| 20260507145007 | 57 | 130 | 2.6 | 5.2 | 0.00 | 0.00 | 0.00 | 61 | 1019.0 |
| 20260507144508 | 57 | 199 | 1.7 | 6.1 | 0.00 | 0.00 | 0.00 | 54 | 1019.0 |
| 20260507144002 | 56 | 229 | 0.9 | 6.1 | 0.00 | 0.00 | 0.00 | 60 | 1019.0 |
| 20260507143600 | 56 | 194 | 2.6 | 5.2 | 0.00 | 0.00 | 0.00 | 59 | 1018.9 |
| 20260507143110 | 56 | 261 | 1.7 | 4.3 | 0.00 | 0.00 | 0.00 | 61 | 1019.0 |
| 20260507142558 | 55 | 217 | 0.9 | 4.3 | 0.00 | 0.00 | 0.00 | 69 | 1019.0 |
| 20260507142057 | 54 | 178 | 0.9 | 4.3 | 0.00 | 0.00 | 0.00 | 73 | 1019.1 |
| 20260507141613 | 53 | 225 | 0.9 | 6.1 | 0.00 | 0.00 | 0.00 | 77 | 1019.1 |
| 20260507141054 | 51 | 215 | 1.7 | 6.1 | 0.00 | 0.00 | 0.00 | 87 | 1019.1 |
| 20260507140508 | 50 | 208 | 1.7 | 5.2 | 0.00 | 0.00 | 0.00 | 93 | 1019.1 |
| 20260507140006 | 48 | 164 | 0.9 | 5.2 | 0.00 | 0.00 | 0.00 | 96 | 1019.2 |
| 20260507135504 | 47 | 176 | 0.9 | 5.2 | 0.00 | 0.00 | 0.00 | 97 | 1019.2 |
| 20260507135001 | 47 | 168 | 1.7 | 4.3 | 0.00 | 0.00 | 0.00 | 97 | 1019.1 |
| 20260507134609 | 46 | 194 | 0.9 | 2.6 | 0.00 | 0.00 | 0.00 | 97 | 1019.2 |
| 20260507134057 | 46 | 173 | 0.9 | 2.6 | 0.00 | 0.00 | 0.00 | 97 | 1019.2 |
| 20260507133556 | 45 | 202 | 0.9 | 2.6 | 0.00 | 0.00 | 0.00 | 97 | 1019.3 |
| 20260507133055 | 45 | 168 | 0.9 | 2.6 | 0.00 | 0.00 | 0.00 | 97 | 1019.2 |
| 20260507132554 | 44 | 131 | 0.0 | 2.6 | 0.00 | 0.00 | 0.00 | 97 | 1019.1 |
| 20260507132052 | 44 | 146 | 0.0 | 1.7 | 0.00 | 0.00 | 0.00 | 96 | 1019.1 |
| 20260507131551 | 43 | 215 | 0.0 | 1.7 | 0.00 | 0.00 | 0.00 | 97 | 1019.2 |
| 20260507131050 | 42 | 218 | 0.0 | 1.7 | 0.00 | 0.00 | 0.00 | 96 | 1019.0 |
| 20260507130648 | 42 | 184 | 0.9 | 1.7 | 0.00 | 0.00 | 0.00 | 96 | 1019.2 |
| 20260507130054 | 41 | 90 | 0.0 | 0.9 | 0.00 | 0.00 | 0.00 | 96 | 1019.1 |
| 20260507125552 | 40 | 90 | 0.0 | 0.9 | 0.00 | 0.00 | 0.00 | 96 | 1019.2 |
| 20260507125053 | 40 | 90 | 0.0 | 0.9 | 0.00 | 0.00 | 0.00 | 96 | 1019.1 |
| 20260507124551 | 40 | 90 | 0.0 | 0.0 | 0.00 | 0.00 | 0.00 | 96 | 1019.1 |
| 20260507124048 | 39 | 90 | 0.0 | 0.0 | 0.00 | 0.00 | 0.00 | 96 | 1019.1 |
| 20260507123548 | 39 | 90 | 0.0 | 0.0 | 0.00 | 0.00 | 0.00 | 96 | 1019.0 |
| 20260507123050 | 39 | 90 | 0.0 | 0.0 | 0.00 | 0.00 | 0.00 | 96 | 1019.1 |
| 20260507122547 | 39 | 90 | 0.0 | 0.0 | 0.00 | 0.00 | 0.00 | 96 | 1019.2 |
| 20260507122047 | 38 | 90 | 0.0 | 0.0 | 0.00 | 0.00 | 0.00 | 96 | 1019.0 |
| 20260507121546 | 38 | 90 | 0.0 | 0.0 | 0.00 | 0.00 | 0.00 | 96 | 1019.1 |
| 20260507121046 | 38 | 90 | 0.0 | 0.0 | 0.00 | 0.00 | 0.00 | 96 | 1019.0 |
| 20260507120645 | 38 | 90 | 0.0 | 0.0 | 0.00 | 0.00 | 0.00 | 95 | 1019.0 |
| 20260507120052 | 37 | 90 | 0.0 | 0.0 | 0.00 | 0.00 | 0.00 | 96 | 1018.9 |
| 20260507115550 | 37 | 90 | 0.0 | 0.0 | 0.00 | 0.00 | 0.00 | 96 | 1018.7 |
| 20260507115051 | 37 | 90 | 0.0 | 0.0 | 0.00 | 0.00 | 0.00 | 95 | 1018.7 |
| 20260507114555 | 36 | 90 | 0.0 | 0.0 | 0.00 | 0.00 | 0.00 | 95 | 1018.8 |
| 20260507114048 | 36 | 90 | 0.0 | 0.0 | 0.00 | 0.00 | 0.00 | 95 | 1018.6 |
| 20260507113547 | 36 | 90 | 0.0 | 0.0 | 0.00 | 0.00 | 0.00 | 95 | 1018.6 |
| 20260507113049 | 36 | 90 | 0.0 | 0.0 | 0.00 | 0.00 | 0.00 | 95 | 1018.5 |
| 20260507112545 | 36 | 90 | 0.0 | 0.0 | 0.00 | 0.00 | 0.00 | 95 | 1018.4 |
| 20260507112044 | 35 | 90 | 0.0 | 0.0 | 0.00 | 0.00 | 0.00 | 95 | 1018.4 |
| 20260507111554 | 35 | 90 | 0.0 | 0.0 | 0.00 | 0.00 | 0.00 | 95 | 1018.4 |
| 20260507111041 | 35 | 90 | 0.0 | 0.0 | 0.00 | 0.00 | 0.00 | 95 | 1018.4 |
| 20260507110644 | 35 | 90 | 0.0 | 0.0 | 0.00 | 0.00 | 0.00 | 95 | 1018.3 |
| 20260507110041 | 35 | 90 | 0.0 | 0.9 | 0.00 | 0.00 | 0.00 | 95 | 1018.3 |
| 20260507105540 | 35 | 90 | 0.0 | 0.9 | 0.00 | 0.00 | 0.00 | 95 | 1018.2 |
| 20260507105040 | 35 | 90 | 0.0 | 0.0 | 0.00 | 0.00 | 0.00 | 95 | 1018.1 |
| 20260507104540 | 34 | 90 | 0.0 | 0.0 | 0.00 | 0.00 | 0.00 | 95 | 1018.0 |
| 20260507104040 | 34 | 90 | 0.0 | 0.0 | 0.00 | 0.00 | 0.00 | 95 | 1017.9 |
| 20260507103539 | 34 | 90 | 0.0 | 0.0 | 0.00 | 0.00 | 0.00 | 95 | 1018.1 |
| 20260507103039 | 34 | 90 | 0.0 | 0.0 | 0.00 | 0.00 | 0.00 | 95 | 1018.2 |
| 20260507102539 | 34 | 90 | 0.0 | 0.0 | 0.00 | 0.00 | 0.00 | 95 | 1018.1 |
| 20260507102041 | 34 | 90 | 0.0 | 0.0 | 0.00 | 0.00 | 0.00 | 95 | 1018.1 |
| 20260507101543 | 34 | 90 | 0.0 | 0.0 | 0.00 | 0.00 | 0.00 | 95 | 1018.0 |
| 20260507101038 | 35 | 90 | 0.0 | 0.0 | 0.00 | 0.00 | 0.00 | 95 | 1017.8 |
| 20260507100639 | 35 | 90 | 0.0 | 0.0 | 0.00 | 0.00 | 0.00 | 95 | 1018.0 |
| 20260507100057 | 35 | 90 | 0.0 | 0.0 | 0.00 | 0.00 | 0.00 | 95 | 1018.2 |
| 20260507095557 | 35 | 90 | 0.0 | 0.0 | 0.00 | 0.00 | 0.00 | 95 | 1018.2 |
| 20260507095056 | 35 | 90 | 0.0 | 0.0 | 0.00 | 0.00 | 0.00 | 95 | 1018.0 |
| 20260507094556 | 35 | 90 | 0.0 | 0.0 | 0.00 | 0.00 | 0.00 | 95 | 1017.9 |
| 20260507094056 | 35 | 90 | 0.0 | 0.9 | 0.00 | 0.00 | 0.00 | 95 | 1017.7 |
| 20260507093554 | 35 | 90 | 0.0 | 0.9 | 0.00 | 0.00 | 0.00 | 95 | 1017.7 |
| 20260507093058 | 35 | 90 | 0.0 | 0.0 | 0.00 | 0.00 | 0.00 | 95 | 1017.9 |
| 20260507092554 | 35 | 90 | 0.0 | 0.0 | 0.00 | 0.00 | 0.00 | 95 | 1018.1 |
| 20260507092055 | 35 | 90 | 0.0 | 0.0 | 0.00 | 0.00 | 0.00 | 95 | 1018.1 |
| 20260507091555 | 35 | 90 | 0.0 | 0.9 | 0.00 | 0.00 | 0.00 | 95 | 1018.0 |
| 20260507091053 | 35 | 90 | 0.0 | 0.9 | 0.00 | 0.00 | 0.00 | 95 | 1018.1 |
| 20260507090653 | 35 | 71 | 0.0 | 0.9 | 0.00 | 0.00 | 0.00 | 95 | 1017.9 |
| 20260507085555 | 35 | 42 | 0.0 | 0.9 | 0.00 | 0.00 | 0.00 | 95 | 1018.2 |
| 20260507085053 | 35 | 36 | 0.0 | 0.9 | 0.00 | 0.00 | 0.00 | 95 | 1018.2 |
| 20260507084553 | 35 | 36 | 0.0 | 0.9 | 0.00 | 0.00 | 0.00 | 95 | 1018.2 |
| 20260507084053 | 36 | 36 | 0.0 | 0.9 | 0.00 | 0.00 | 0.00 | 95 | 1018.2 |
| 20260507083552 | 36 | 36 | 0.0 | 0.9 | 0.00 | 0.00 | 0.00 | 95 | 1018.3 |
| 20260507083052 | 36 | 360 | 0.0 | 0.0 | 0.00 | 0.00 | 0.00 | 95 | 1018.4 |
| 20260507082553 | 36 | 360 | 0.0 | 0.0 | 0.00 | 0.00 | 0.00 | 95 | 1018.4 |
| 20260507082050 | 36 | 360 | 0.0 | 0.0 | 0.00 | 0.00 | 0.00 | 95 | 1018.4 |
| 20260507081550 | 36 | 360 | 0.0 | 0.0 | 0.00 | 0.00 | 0.00 | 95 | 1018.5 |
| 20260507081050 | 36 | 360 | 0.0 | 0.0 | 0.00 | 0.00 | 0.00 | 95 | 1018.5 |
| 20260507080649 | 36 | 360 | 0.0 | 0.0 | 0.00 | 0.00 | 0.00 | 95 | 1018.5 |
| 20260507080049 | 36 | 360 | 0.0 | 0.0 | 0.00 | 0.00 | 0.00 | 95 | 1018.4 |
| 20260507075552 | 36 | 360 | 0.0 | 0.0 | 0.00 | 0.00 | 0.00 | 95 | 1018.5 |
| 20260507075049 | 36 | 360 | 0.0 | 0.0 | 0.00 | 0.00 | 0.00 | 95 | 1018.4 |
| 20260507074554 | 36 | 360 | 0.0 | 0.0 | 0.00 | 0.00 | 0.00 | 95 | 1018.4 |
| 20260507074048 | 36 | 360 | 0.0 | 0.0 | 0.00 | 0.00 | 0.00 | 95 | 1018.2 |
| 20260507073547 | 36 | 360 | 0.0 | 0.0 | 0.00 | 0.00 | 0.00 | 95 | 1018.3 |
| 20260507073046 | 37 | 360 | 0.0 | 0.0 | 0.00 | 0.00 | 0.00 | 95 | 1018.2 |
| 20260507072547 | 37 | 360 | 0.0 | 0.0 | 0.00 | 0.00 | 0.00 | 95 | 1018.3 |
| 20260507072045 | 37 | 360 | 0.0 | 0.0 | 0.00 | 0.00 | 0.00 | 95 | 1018.3 |
| 20260507071546 | 37 | 360 | 0.0 | 0.0 | 0.00 | 0.00 | 0.00 | 95 | 1018.3 |
| 20260507071047 | 37 | 360 | 0.0 | 0.0 | 0.00 | 0.00 | 0.00 | 95 | 1018.1 |
| 20260507070647 | 37 | 360 | 0.0 | 0.0 | 0.00 | 0.00 | 0.00 | 95 | 1018.2 |
| 20260507070050 | 37 | 360 | 0.0 | 0.0 | 0.00 | 0.00 | 0.00 | 95 | 1018.1 |
| 20260507065547 | 37 | 360 | 0.0 | 0.0 | 0.00 | 0.00 | 0.00 | 95 | 1018.0 |
| 20260507065046 | 37 | 360 | 0.0 | 0.0 | 0.00 | 0.00 | 0.00 | 95 | 1018.4 |
| 20260507064603 | 37 | 360 | 0.0 | 0.0 | 0.00 | 0.00 | 0.00 | 95 | 1018.3 |
| 20260507064045 | 37 | 360 | 0.0 | 0.0 | 0.00 | 0.00 | 0.00 | 95 | 1018.4 |
| 20260507063543 | 37 | 360 | 0.0 | 0.0 | 0.00 | 0.00 | 0.00 | 95 | 1018.4 |
| 20260507063047 | 37 | 360 | 0.0 | 0.0 | 0.00 | 0.00 | 0.00 | 95 | 1018.4 |
| 20260507062544 | 37 | 360 | 0.0 | 0.0 | 0.00 | 0.00 | 0.00 | 95 | 1018.4 |
| 20260507062042 | 37 | 360 | 0.0 | 0.9 | 0.00 | 0.00 | 0.00 | 95 | 1018.5 |
| 20260507061542 | 38 | 360 | 0.0 | 0.9 | 0.00 | 0.00 | 0.00 | 95 | 1018.4 |
| 20260507061041 | 38 | 360 | 0.0 | 0.0 | 0.00 | 0.00 | 0.00 | 95 | 1018.4 |
| 20260507060641 | 38 | 360 | 0.0 | 0.0 | 0.00 | 0.00 | 0.00 | 95 | 1018.4 |
| 20260507060049 | 38 | 360 | 0.0 | 0.0 | 0.00 | 0.00 | 0.00 | 95 | 1018.3 |
| 20260507055546 | 38 | 360 | 0.0 | 0.0 | 0.00 | 0.00 | 0.00 | 95 | 1018.2 |
| 20260507055046 | 38 | 360 | 0.0 | 0.0 | 0.00 | 0.00 | 0.00 | 95 | 1018.5 |
| 20260507054546 | 38 | 360 | 0.0 | 0.0 | 0.00 | 0.00 | 0.00 | 95 | 1018.3 |
| 20260507054045 | 39 | 360 | 0.0 | 0.0 | 0.00 | 0.00 | 0.00 | 95 | 1018.3 |
| 20260507053544 | 39 | 360 | 0.0 | 0.0 | 0.00 | 0.00 | 0.00 | 94 | 1018.3 |
| 20260507053044 | 39 | 360 | 0.0 | 0.0 | 0.00 | 0.00 | 0.00 | 94 | 1018.4 |
| 20260507052545 | 39 | 360 | 0.0 | 0.0 | 0.00 | 0.00 | 0.00 | 94 | 1018.2 |
| 20260507052041 | 39 | 360 | 0.0 | 0.0 | 0.00 | 0.00 | 0.00 | 94 | 1018.3 |
| 20260507051540 | 39 | 355 | 0.0 | 0.0 | 0.00 | 0.00 | 0.00 | 94 | 1018.2 |
| 20260507051040 | 39 | 355 | 0.0 | 0.0 | 0.00 | 0.00 | 0.00 | 94 | 1018.1 |
| 20260507050503 | 39 | 355 | 0.0 | 0.0 | 0.00 | 0.00 | 0.00 | 94 | 1018.1 |
| 20260507050007 | 39 | 355 | 0.0 | 0.0 | 0.00 | 0.02 | 0.00 | 94 | 1018.2 |
| 20260507045501 | 40 | 355 | 0.0 | 0.0 | 0.00 | 0.02 | 0.00 | 94 | 1018.2 |
| 20260507045001 | 40 | 355 | 0.0 | 0.0 | 0.00 | 0.02 | 0.00 | 94 | 1018.3 |
| 20260507044500 | 40 | 355 | 0.0 | 0.0 | 0.00 | 0.02 | 0.00 | 94 | 1018.3 |
| 20260507044100 | 40 | 355 | 0.0 | 0.0 | 0.00 | 0.02 | 0.00 | 94 | 1018.2 |
| 20260507043558 | 40 | 355 | 0.0 | 0.0 | 0.00 | 0.02 | 0.00 | 94 | 1018.2 |
| 20260507043102 | 40 | 355 | 0.0 | 0.0 | 0.00 | 0.02 | 0.00 | 94 | 1018.2 |
| 20260507042557 | 40 | 355 | 0.0 | 0.0 | 0.00 | 0.02 | 0.00 | 94 | 1018.1 |
| 20260507042056 | 41 | 355 | 0.0 | 0.0 | 0.00 | 0.02 | 0.00 | 94 | 1017.9 |
| 20260507041605 | 41 | 355 | 0.0 | 0.0 | 0.00 | 0.02 | 0.00 | 94 | 1018.1 |
| 20260507041055 | 41 | 355 | 0.0 | 0.0 | 0.00 | 0.02 | 0.00 | 94 | 1018.1 |
| 20260507040655 | 41 | 355 | 0.0 | 0.0 | 0.00 | 0.02 | 0.00 | 94 | 1018.1 |
| 20260507040059 | 41 | 355 | 0.0 | 0.0 | 0.00 | 0.02 | 0.00 | 94 | 1017.9 |
| 20260507035557 | 42 | 355 | 0.0 | 0.0 | 0.00 | 0.02 | 0.00 | 94 | 1018.0 |
| 20260507035056 | 42 | 355 | 0.0 | 0.0 | 0.00 | 0.02 | 0.00 | 94 | 1017.9 |
| 20260507034605 | 42 | 355 | 0.0 | 0.0 | 0.00 | 0.02 | 0.00 | 94 | 1017.9 |
| 20260507034055 | 42 | 355 | 0.0 | 0.0 | 0.00 | 0.02 | 0.00 | 93 | 1017.9 |
| 20260507033554 | 42 | 355 | 0.0 | 0.0 | 0.00 | 0.02 | 0.00 | 94 | 1017.9 |
| 20260507033055 | 42 | 355 | 0.0 | 0.0 | 0.00 | 0.02 | 0.00 | 93 | 1017.9 |
| 20260507032554 | 43 | 355 | 0.0 | 0.0 | 0.00 | 0.02 | 0.00 | 93 | 1017.9 |
| 20260507032053 | 43 | 355 | 0.0 | 0.0 | 0.00 | 0.02 | 0.00 | 93 | 1017.9 |
| 20260507031555 | 43 | 355 | 0.0 | 0.0 | 0.00 | 0.02 | 0.00 | 93 | 1017.9 |
| 20260507031057 | 43 | 355 | 0.0 | 0.0 | 0.00 | 0.02 | 0.00 | 93 | 1017.9 |
| 20260507030654 | 43 | 355 | 0.0 | 0.9 | 0.00 | 0.02 | 0.00 | 93 | 1017.9 |
| 20260507030057 | 43 | 355 | 0.0 | 0.0 | 0.00 | 0.02 | 0.00 | 92 | 1018.0 |
| 20260507025550 | 44 | 355 | 0.0 | 0.0 | 0.00 | 0.06 | 0.00 | 92 | 1017.9 |
| 20260507025049 | 44 | 355 | 0.0 | 0.0 | 0.00 | 0.06 | 0.00 | 92 | 1017.9 |
| 20260507024549 | 44 | 355 | 0.0 | 0.9 | 0.00 | 0.06 | 0.00 | 92 | 1017.8 |
| 20260507024049 | 44 | 355 | 0.0 | 0.9 | 0.00 | 0.06 | 0.00 | 92 | 1017.8 |
| 20260507023548 | 45 | 355 | 0.0 | 0.0 | 0.00 | 0.06 | 0.00 | 91 | 1017.7 |
| 20260507023103 | 45 | 355 | 0.0 | 0.0 | 0.00 | 0.06 | 0.00 | 91 | 1017.6 |
| 20260507022548 | 45 | 355 | 0.0 | 0.0 | 0.00 | 0.06 | 0.00 | 90 | 1017.6 |
| 20260507022049 | 46 | 355 | 0.0 | 0.0 | 0.00 | 0.06 | 0.00 | 90 | 1017.7 |
| 20260507021552 | 46 | 355 | 0.0 | 0.0 | 0.00 | 0.06 | 0.00 | 89 | 1017.6 |
| 20260507021049 | 47 | 355 | 0.0 | 0.0 | 0.00 | 0.06 | 0.00 | 89 | 1017.4 |
| 20260507020649 | 47 | 355 | 0.0 | 0.0 | 0.00 | 0.06 | 0.00 | 88 | 1017.4 |
| 20260507020047 | 47 | 355 | 0.0 | 0.0 | 0.00 | 0.06 | 0.00 | 88 | 1017.3 |
| 20260507015546 | 48 | 355 | 0.0 | 0.0 | 0.00 | 0.15 | 0.00 | 87 | 1017.1 |
| 20260507015047 | 48 | 355 | 0.0 | 0.0 | 0.00 | 0.15 | 0.00 | 87 | 1016.9 |
| 20260507014558 | 48 | 355 | 0.0 | 0.0 | 0.00 | 0.15 | 0.00 | 86 | 1016.9 |
| 20260507014047 | 48 | 355 | 0.0 | 0.0 | 0.00 | 0.15 | 0.00 | 85 | 1016.9 |
| 20260507013545 | 48 | 355 | 0.0 | 0.0 | 0.00 | 0.15 | 0.00 | 85 | 1017.0 |
| 20260507013103 | 49 | 355 | 0.0 | 0.0 | 0.00 | 0.15 | 0.00 | 84 | 1016.8 |
| 20260507012545 | 49 | 355 | 0.0 | 0.0 | 0.00 | 0.15 | 0.00 | 83 | 1016.9 |
| 20260507012045 | 49 | 355 | 0.0 | 0.0 | 0.00 | 0.15 | 0.00 | 82 | 1016.7 |
| 20260507011546 | 50 | 355 | 0.0 | 0.0 | 0.00 | 0.15 | 0.00 | 81 | 1016.6 |
| 20260507011045 | 50 | 355 | 0.0 | 0.0 | 0.00 | 0.15 | 0.00 | 79 | 1016.7 |
| 20260507010645 | 50 | 355 | 0.0 | 0.0 | 0.00 | 0.15 | 0.00 | 79 | 1016.8 |
| 20260507010044 | 51 | 355 | 0.0 | 0.9 | 0.00 | 0.15 | 0.00 | 75 | 1016.7 |
| 20260507005543 | 51 | 355 | 0.0 | 0.9 | 0.00 | 0.22 | 0.00 | 71 | 1016.8 |
| 20260507005044 | 52 | 355 | 0.0 | 1.7 | 0.00 | 0.22 | 0.00 | 69 | 1016.6 |
| 20260507004543 | 52 | 360 | 0.0 | 1.7 | 0.00 | 0.22 | 0.00 | 67 | 1016.4 |
| 20260507004044 | 53 | 341 | 0.0 | 1.7 | 0.00 | 0.22 | 0.00 | 65 | 1016.4 |
| 20260507003543 | 54 | 344 | 0.0 | 3.5 | 0.00 | 0.22 | 0.00 | 65 | 1016.4 |
| 20260507003042 | 54 | 355 | 0.9 | 3.5 | 0.00 | 0.22 | 0.00 | 63 | 1016.4 |
| 20260507002542 | 55 | 34 | 0.9 | 5.2 | 0.00 | 0.22 | 0.00 | 63 | 1016.4 |
| 20260507002042 | 55 | 348 | 2.6 | 5.2 | 0.00 | 0.22 | 0.00 | 61 | 1016.3 |
| 20260507001555 | 56 | 344 | 0.9 | 7.0 | 0.00 | 0.22 | 0.00 | 61 | 1016.1 |
| 20260507001045 | 56 | 331 | 1.7 | 7.0 | 0.00 | 0.22 | 0.00 | 57 | 1016.0 |
| 20260507000641 | 57 | 9 | 2.6 | 7.0 | 0.00 | 0.22 | 0.00 | 57 | 1016.0 |
| 20260507000042 | 57 | 351 | 1.7 | 8.7 | 0.00 | 0.22 | 0.00 | 58 | 1015.9 |
| 20260506235544 | 57 | 292 | 2.6 | 8.7 | 0.00 | 0.25 | 0.00 | 55 | 1015.7 |
| 20260506235041 | 57 | 355 | 1.7 | 10.4 | 0.00 | 0.25 | 0.00 | 58 | 1015.7 |
| 20260506234541 | 58 | 294 | 2.6 | 10.4 | 0.00 | 0.25 | 0.00 | 56 | 1015.7 |
| 20260506234043 | 58 | 9 | 3.5 | 10.4 | 0.00 | 0.25 | 0.00 | 57 | 1015.7 |
| 20260506233542 | 58 | 329 | 2.6 | 12.2 | 0.00 | 0.25 | 0.00 | 54 | 1015.7 |
| 20260506233045 | 58 | 338 | 2.6 | 12.2 | 0.00 | 0.25 | 0.00 | 53 | 1015.7 |
| 20260506232543 | 58 | 26 | 0.9 | 8.7 | 0.00 | 0.25 | 0.00 | 57 | 1015.6 |
| 20260506232039 | 58 | 5 | 1.7 | 8.7 | 0.00 | 0.25 | 0.00 | 58 | 1015.7 |
| 20260506231544 | 58 | 18 | 2.6 | 12.2 | 0.00 | 0.25 | 0.00 | 55 | 1015.7 |
| 20260506231039 | 58 | 15 | 3.5 | 12.2 | 0.00 | 0.25 | 0.00 | 54 | 1015.8 |
| 20260506230638 | 58 | 341 | 3.5 | 8.7 | 0.00 | 0.25 | 0.00 | 53 | 1016.0 |
| 20260506230051 | 59 | 300 | 4.3 | 8.7 | 0.00 | 0.25 | 0.00 | 54 | 1016.0 |
| 20260506225553 | 59 | 284 | 1.7 | 8.7 | 0.00 | 0.28 | 0.00 | 55 | 1016.0 |
| 20260506225051 | 59 | 19 | 3.5 | 12.2 | 0.00 | 0.28 | 0.00 | 54 | 1016.0 |
| 20260506224551 | 59 | 299 | 2.6 | 12.2 | 0.00 | 0.28 | 0.00 | 55 | 1015.9 |
| 20260506224051 | 59 | 11 | 4.3 | 9.6 | 0.00 | 0.28 | 0.00 | 54 | 1015.8 |
| 20260506223550 | 59 | 317 | 1.7 | 7.8 | 0.00 | 0.28 | 0.00 | 53 | 1015.8 |
| 20260506223104 | 59 | 302 | 3.5 | 8.7 | 0.00 | 0.28 | 0.00 | 53 | 1016.0 |
| 20260506222550 | 59 | 318 | 3.5 | 8.7 | 0.00 | 0.28 | 0.00 | 53 | 1016.0 |
| 20260506222052 | 59 | 5 | 1.7 | 7.8 | 0.00 | 0.28 | 0.00 | 53 | 1015.8 |
| 20260506221549 | 59 | 118 | 2.6 | 7.8 | 0.00 | 0.28 | 0.00 | 52 | 1016.0 |
| 20260506221049 | 59 | 355 | 3.5 | 7.8 | 0.00 | 0.28 | 0.00 | 55 | 1015.9 |
| 20260506220650 | 59 | 355 | 2.6 | 11.3 | 0.00 | 0.28 | 0.00 | 55 | 1015.9 |
| 20260506220051 | 59 | 346 | 3.5 | 11.3 | 0.00 | 0.28 | 0.00 | 54 | 1015.9 |
| 20260506215552 | 58 | 345 | 2.6 | 8.7 | 0.00 | 0.28 | 0.00 | 56 | 1015.8 |
| 20260506215051 | 59 | 348 | 2.6 | 7.8 | 0.00 | 0.28 | 0.00 | 54 | 1016.0 |
| 20260506214555 | 59 | 299 | 3.5 | 8.7 | 0.00 | 0.28 | 0.00 | 56 | 1016.0 |
| 20260506214052 | 58 | 292 | 2.6 | 10.4 | 0.00 | 0.28 | 0.00 | 59 | 1016.2 |
| 20260506213550 | 59 | 19 | 4.3 | 10.4 | 0.00 | 0.28 | 0.00 | 52 | 1016.3 |
| 20260506213049 | 60 | 339 | 2.6 | 7.0 | 0.00 | 0.28 | 0.00 | 56 | 1016.3 |
| 20260506212548 | 59 | 355 | 1.7 | 7.8 | 0.00 | 0.28 | 0.00 | 56 | 1016.4 |
| 20260506212049 | 59 | 341 | 1.7 | 10.4 | 0.00 | 0.28 | 0.00 | 59 | 1016.3 |
| 20260506211547 | 59 | 315 | 5.2 | 10.4 | 0.00 | 0.28 | 0.00 | 58 | 1016.4 |
| 20260506211047 | 59 | 326 | 2.6 | 9.6 | 0.00 | 0.28 | 0.00 | 57 | 1016.4 |
| 20260506210648 | 59 | 313 | 2.6 | 8.7 | 0.00 | 0.28 | 0.00 | 55 | 1016.4 |
| 20260506210050 | 58 | 42 | 1.7 | 8.7 | 0.00 | 0.28 | 0.00 | 57 | 1016.6 |
| 20260506205550 | 58 | 279 | 3.5 | 7.8 | 0.00 | 0.28 | 0.00 | 58 | 1016.7 |
| 20260506205049 | 57 | 288 | 2.6 | 7.8 | 0.00 | 0.28 | 0.00 | 60 | 1016.7 |
| 20260506204549 | 58 | 315 | 2.6 | 7.8 | 0.00 | 0.28 | 0.00 | 58 | 1016.8 |
| 20260506204048 | 59 | 252 | 0.9 | 8.7 | 0.00 | 0.28 | 0.00 | 57 | 1016.8 |
| 20260506203546 | 60 | 15 | 3.5 | 8.7 | 0.00 | 0.28 | 0.00 | 60 | 1016.8 |
| 20260506203048 | 59 | 311 | 3.5 | 7.8 | 0.00 | 0.28 | 0.00 | 60 | 1017.0 |
| 20260506202548 | 57 | 328 | 1.7 | 7.0 | 0.00 | 0.28 | 0.00 | 63 | 1017.0 |
| 20260506202045 | 57 | 306 | 1.7 | 9.6 | 0.00 | 0.28 | 0.00 | 61 | 1017.0 |
| 20260506201545 | 57 | 27 | 3.5 | 9.6 | 0.00 | 0.28 | 0.00 | 60 | 1017.1 |
| 20260506201047 | 57 | 328 | 2.6 | 10.4 | 0.00 | 0.28 | 0.00 | 61 | 1017.1 |
| 20260506200644 | 58 | 307 | 1.7 | 10.4 | 0.00 | 0.28 | 0.00 | 56 | 1017.2 |
| 20260506200117 | 59 | 302 | 1.7 | 5.2 | 0.00 | 0.28 | 0.00 | 64 | 1017.2 |